Regional Weather Roundup
Issued by NWS

Home | Current Version | Previous Version | Graphics & Text | Print | Product List | Glossary On
Versions: 1 2 3 4 5 6 7 8 9 10 11 12 13 14 15 16 17 18 19 20 21 22 23 24 25 26 27 28 29 30 31 32 33 34 35 36 37 38 39 40 41 42 43 44 45 46 47 48 49 50
130
ASUS45 KSLC 152110
RWRUT

UTAH REGIONAL WEATHER ROUNDUP
NATIONAL WEATHER SERVICE SALT LAKE CITY UT
200 PM MST SUN JAN 15 2017

UTZ001>011-023>025-152200-

NORTHERN UTAH

CITY           SKY/WX    TMP DP  RH WIND       PRES   REMARKS
BRIGHAM CITY     N/A     25  22  90 NW3       30.13F
HILL AFB       MOSUNNY   28  16  61 SE8       30.09F WCI  20
LOGAN            N/A     14  11  87 W5        30.14F FOG     WCI   6
OGDEN            N/A     28  21  75 S5        30.10F WCI  23
SALT LAKE CITY CLOUDY    30  24  78 NW5       30.11F WCI  25
TOOELE VALLEY  CLOUDY    30  28  93 NW3       30.12F
WENDOVER         N/A     32  25  74 SE5       30.12F WCI  27
HEBER CITY       N/A     25  16  68 CALM      30.07F
WEST JORDAN    CLOUDY    29  29  99 CALM      30.10F

$$

UTZ011>015-024>027-152200-

CENTRAL/NORTHEAST UTAH

CITY           SKY/WX    TMP DP  RH WIND       PRES   REMARKS
PROVO AIRPORT  CLOUDY    30  24  78 NW6       30.11F WCI  24
MOAB/CANYONLAN CLOUDY    39  36  89 W6        29.93F WCI  35
DELTA          CLOUDY    30  27  86 NW3       30.08F
PRICE          CLOUDY    40  29  64 CALM      29.92F
RICHFIELD      CLOUDY    32  30  93 NE6       30.06F FOG     WCI  26
ROOSEVELT      CLOUDY    34  25  69 CALM      30.05F
VERNAL         CLOUDY    31  26  82 VRB5      30.02F WCI  26

$$

UTZ013>016-019>022-027-152200-

SOUTHERN UTAH

CITY           SKY/WX    TMP DP  RH WIND       PRES   REMARKS
BRYCE CANYON   CLOUDY    32  26  78 W8        29.96F WCI  25
CEDAR CITY     CLOUDY    30  26  85 N9        30.01F WCI  22
MILFORD        CLOUDY    31  24  75 N12       30.06F WCI  22
ST GEORGE        N/A     48  30  49 S6        30.01F
HANKSVILLE     CLOUDY    39  36  87 MISG      29.98F
KANAB          CLOUDY    45  37  76 S2        30.00F
BLANDING       CLOUDY    40  40  99 S6        29.96F

$$

REGIONAL REPORTS     COLORADO/ARIZONA

CITY           SKY/WX    TMP DP  RH WIND       PRES   REMARKS
CRAIG, CO      CLOUDY    24  19  81 N6        30.00F WCI  17
GRAND JUNCTION SUNNY     43  33  68 NW5       29.92F
RIFLE, CO      CLOUDY    40  29  64 SW3       29.91F
MONTROSE, CO   CLOUDY    39  33  79 CALM      29.93F
CORTEZ, CO     CLOUDY    41  39  93 W8        29.88F
COLORADO CITY    N/A     46  34  61 W5        29.99F
PAGE, AZ       CLOUDY    46  36  68 VRB3      29.94F
GRAND CANYON   CLOUDY    38  36  92 W6        29.96F WCI  33
KINGMAN, AZ    CLOUDY    51  33  50 N7        29.98F
FLAGSTAFF, AZ  CLOUDY    37  34  89 W5        29.94F WCI  33

$$

REGIONAL REPORTS    NEVADA/IDAHO/WYOMING

CITY           SKY/WX    TMP DP  RH WIND       PRES   REMARKS
LAS VEGAS, NV    N/A     55  27  34 CALM      29.99F
ELY, NY        CLOUDY    27  23  85 N5        30.07F WCI  22
ELKO, NV       CLOUDY    26  21  81 CALM      30.14F
POCATELLO, ID  CLOUDY    15   8  73 W6        30.18F WCI   6
BURLEY, ID     CLOUDY    15   9  76 W3        30.20F HAZE
FORT BRIDGER,  LGT SNOW  10   9  92 CALM      30.06F
EVANSTON, WY   CLOUDY     7   3  84 S5        30.02F WCI  -2
ROCK SPRINGS,  CLOUDY     9   5  84 W9        30.03F FOG     WCI  -4

$$




USA.gov is the U.S. government's official web portal to all federal, state and local government web resources and services.